FENGYUN 1C DEB, 31562

Orbit data source: Space-Track

FENGYUN 1C DEB, 31562 is space debris in SSO originally from a launch on Mon, 10 May 1999 UTC launched from the Taiyaun Space Center, China (TSC). Fengyun 1C debris stems from the Chinese weather satellite Fengyun-1C, which was intentionally destroyed by a Chinese anti-satellite missile in 2007. This event dramatically increased the amount of space debris, with thousands of trackable fragments posing hazards to satellites and human spaceflight. The Fengyun 1C debris cloud has become a focal point in discussions about space sustainability and the need for international regulations to prevent the creation of new debris.

Loading next visibility...
Identifier
31562, 1999-025BZD
Orbit
SSO
Country
Flag of CNCN / PRC
Related business
Manufacturer
Unknown
Mission
Spacecraft
Bus & Motor
Unknown
Mass
Unknown
Launch date (UTC)
1999-05-10 (27 years ago)
Launch vehicle
Unknown
Launch site
Taiyaun Space Center, China (TSC)
Object type
Payload
Rocket body
Debris
Shape & HBR
Unknown shape, 0.1 m
Radar Cross Section
Small (<0.1 m²)

Expand to show TLE details & history
Last TLE update: 2 days ago

TLE from 2 days ago
0 FENGYUN 1C DEB
1 31562U 99025BZD 26206.27923221  .00001819  00000-0  54485-3 0  9994
2 31562  99.2797  22.2891 0055895 344.4426  15.5042 14.43317020  2111
Epoch: 2026-07-25T06:42Z
TLE epoch observation values (Epoch: 2026-07-25T06:42:05.662Z)
Latitude
-0.00001°
Longitude
-21.22828°
Altitude
712.116 km
Speed
7.52 km/s
True Right ascension
01h 29m 09s
True Declination
0° 00' 00"
Sunlit
Object was in daylight at epoch
Visualization orbit readout
Latitude
Unknown
Longitude
Unknown
Altitude
Unknown
Speed
Unknown
Apparent Right ascension
Unknown
Apparent Declination
Unknown
Sunlit
N/A
Visualization observer readout
Local Sidereal Time
00:03:21
Azimuth
Unknown
Elevation
Unknown
Doppler factor
Unknown
Orbital elements
Apogee altitude
784.529 km
Perigee altitude
704.903 km
Semi-major axis
7,122.853 km
Eccentricity
0.00559
Inclination
99.2797°
RAAN
22.2891°
Arg. of periapsis
344.4426°
True anomaly
15.67657°
Mean anomaly
15.5042°
Eccentric anomaly
15.59027°
Mean motion
3.61046 °/min
Orbital period
99.71 mins
BSTAR
0.00054485
Loading maneuver chart data...
Computing Atmospheric mass density...
Loading historical data...
Loading historical data...
Loading historical data...
Loading historical data...
Loading historical data...
Loading historical data...
Loading historical data...

Documentation

Showing up to 5 results
|